Terminal Aerodrome Forecast
Issued by NWS

Home | Current Version | Previous Version | Text Only | Print | Product List | Glossary On
Versions: 1 2 3 4 5 6 7 8 9 10 11 12 13 14 15 16 17 18 19 20 21 22 23 24 25 26 27 28 29 30 31 32
000
FTAK31 PAFA 222320
TAFAUN
TAF
PAUN 222320Z 2300/2324 VRB03KT P6SM SKC
     FM230800 23005KT P6SM SCT025 OVC040
     FM231600 19010KT P6SM SCT025 OVC040=

USA.gov is the U.S. government's official web portal to all federal, state and local government web resources and services.